STARLINK-34411 (65414 NORAD) Tracking and Keplerian Element Data

This shows tracking and keplerian element data for the satellite.

Feedback or suggestion? Click here.




ElementValue
Catalog65414
NameSTARLINK-34411
Epoch Orbit1712
Epoch Day354.01785323
Epoch Year2025
RAAN246.8565
Inclination53.1569
Eccentricity0.0003518
Argument of Perigee171.4685
Mean Anonmoly188.6382
Mean Motion15.43421967
Decay Rate0.00066221
L11 65414U 25192L 25354.01785323 .00066221 00000+0 14550-2 0 9990
L22 65414 53.1569 246.8565 0003518 171.4685 188.6382 15.43421967 17125



Live tracking and technical data element details for STARLINK-34411 (NORAD 65414). STARLINK-34411 can be tracked NOW for your location showing map with azimuth and elevation plus other details from your city location.







IsCatalogInMostPopularTable: catalog: 65414, numindb: 7
Update: records affected: 1



GetName: 65414 STARLINK-34411

Hit Count: updated at: Sat, 11 Apr 2026 22:00:48 GMT